Location: �terpigny
(49.8910°N, 2.9249°E)
Time: 17:01:36
(UTC+00:00)

Transit 2A - All Passes

Search period start: 26 May 2022 00:00
Search period end: 05 June 2022 00:00
Orbit: 598 x 960 km, 66.7° (Epoch: 25 May)

Date Brightness Start Highest point End Pass type
(mag) Time Alt. Az. Time Alt. Az. Time Alt. Az.
26 May - 05:12:51 10° SSE 05:17:42 27° ESE 05:22:15 10° NE daylight
26 May - 06:54:48 10° SW 07:00:37 66° NW 07:05:54 10° NNE daylight
26 May - 08:40:38 10° WNW 08:44:43 20° NNW 08:48:32 10° NNE daylight
26 May - 10:28:08 10° NNW 10:29:54 12° N 10:31:38 10° NNE daylight
26 May - 12:12:03 10° NNW 12:15:14 17° NNE 12:18:14 10° ENE daylight
26 May - 13:54:47 10° NNW 13:59:30 56° NE 14:03:51 10° SE daylight
26 May - 15:38:39 10° WNW 15:42:12 22° WSW 15:45:36 10° SSW daylight
27 May - 04:39:30 10° SSE 04:43:34 20° ESE 04:47:26 10° ENE daylight
27 May - 06:20:22 10° SW 06:26:16 86° NW 06:31:36 10° NE daylight
27 May - 08:05:35 10° W 08:10:07 24° NNW 08:14:19 10° NNE daylight
27 May - 09:53:07 10° NNW 09:55:08 12° N 09:57:07 10° NNE daylight
27 May - 11:37:49 10° NNW 11:40:32 14° NNE 11:43:08 10° NE daylight
27 May - 13:20:32 10° NNW 13:25:04 41° NE 13:29:17 10° ESE daylight
27 May - 15:03:59 10° NW 15:08:06 32° WSW 15:11:59 10° S daylight
28 May - 04:06:40 10° SE 04:09:30 14° ESE 04:12:14 10° ENE daylight
28 May - 05:46:05 10° SSW 05:51:57 72° ESE 05:57:16 10° NE daylight
28 May - 07:30:38 10° W 07:35:34 30° NW 07:40:06 10° NNE daylight
28 May - 09:17:58 10° NW 09:20:23 13° NNW 09:22:44 10° NNE daylight
28 May - 11:03:33 10° NNW 11:05:49 13° NNE 11:08:00 10° NE daylight
28 May - 12:46:17 10° NNW 12:50:36 31° NE 12:54:36 10° ESE daylight
28 May - 14:29:26 10° NW 14:33:55 47° WSW 14:38:06 10° SSE daylight
29 May - 05:11:59 10° SSW 05:17:41 53° ESE 05:22:52 10° NE daylight
29 May - 06:55:47 10° WSW 07:01:03 37° NW 07:05:53 10° NNE daylight
29 May - 08:42:45 10° NW 08:45:40 15° NNW 08:48:27 10° NNE daylight
29 May - 10:29:12 10° NNW 10:31:04 12° N 10:32:52 10° NNE daylight
29 May - 12:12:04 10° NNW 12:16:03 25° NE 12:19:46 10° E daylight
29 May - 13:55:01 10° NW 13:59:41 69° WSW 14:04:02 10° SSE daylight
30 May - 04:38:03 10° S 04:43:26 38° ESE 04:48:24 10° NE daylight
30 May - 06:21:03 10° WSW 06:26:36 48° NW 06:31:39 10° NNE daylight
30 May - 08:07:33 10° WNW 08:10:58 17° NNW 08:14:12 10° NNE daylight
30 May - 09:54:41 10° NNW 09:56:18 11° N 09:57:52 10° NNE daylight
30 May - 11:37:51 10° NNW 11:41:27 20° NNE 11:44:50 10° ENE daylight
30 May - 13:20:40 10° NW 13:25:23 83° NE 13:29:47 10° SE daylight
30 May - 15:05:25 10° WNW 15:07:45 14° WSW 15:10:02 10° SW daylight
31 May - 04:04:21 10° S 04:09:15 28° ESE 04:13:48 10° NE daylight
31 May - 05:46:27 10° SW 05:52:11 62° NW 05:57:23 10° NNE daylight
31 May - 07:32:24 10° WNW 07:36:19 19° NNW 07:39:59 10° NNE daylight
31 May - 09:19:56 10° NNW 09:21:31 11° N 09:23:04 10° NNE daylight
31 May - 11:03:38 10° NNW 11:06:48 17° NNE 11:09:49 10° ENE daylight
31 May - 12:46:21 10° NNW 12:51:01 59° NE 12:55:21 10° SE daylight
31 May - 14:30:18 10° WNW 14:33:41 21° WSW 14:36:56 10° SSW daylight
01 Jun - 03:30:57 10° SSE 03:35:06 20° ESE 03:39:02 10° ENE daylight
01 Jun - 05:12:00 10° SW 05:17:49 82° NW 05:23:06 10° NE daylight
01 Jun - 06:57:20 10° W 07:01:42 23° NNW 07:05:47 10° NNE daylight
01 Jun - 08:44:55 10° NNW 08:46:45 12° N 08:48:31 10° NNE daylight
01 Jun - 10:29:25 10° NNW 10:32:07 15° NNE 10:34:42 10° NE daylight
01 Jun - 12:12:04 10° NNW 12:16:36 43° NE 12:20:48 10° ESE daylight
01 Jun - 13:55:34 10° NW 13:59:34 30° WSW 14:03:22 10° S daylight
02 Jun - 02:58:01 10° SE 03:01:00 14° ESE 03:03:53 10° ENE visible
02 Jun - 04:37:41 10° SSW 04:43:30 75° ESE 04:48:45 10° NE daylight
02 Jun - 06:22:21 10° W 06:27:08 28° NW 06:31:34 10° NNE daylight
02 Jun - 08:09:45 10° NW 08:11:59 13° NNW 08:14:08 10° NNE daylight
02 Jun - 09:55:10 10° NNW 09:57:23 13° NNE 09:59:33 10° NE daylight
02 Jun - 11:37:50 10° NNW 11:42:07 32° NE 11:46:08 10° ESE daylight
02 Jun - 13:21:01 10° NW 13:25:23 44° WSW 13:29:31 10° S daylight
03 Jun - 04:03:32 10° SSW 04:09:12 55° ESE 04:14:22 10° NE daylight
03 Jun - 05:47:28 10° WSW 05:52:37 35° NW 05:57:20 10° NNE daylight
03 Jun - 07:34:31 10° NW 07:37:15 14° NNW 07:39:51 10° NNE daylight
03 Jun - 09:20:51 10° NNW 09:22:38 12° N 09:24:23 10° NNE daylight
03 Jun - 11:03:36 10° NNW 11:07:35 25° NE 11:11:18 10° E daylight
03 Jun - 12:46:34 10° NW 12:51:09 65° WSW 12:55:27 10° SSE daylight
04 Jun - 03:29:34 10° S 03:34:57 40° ESE 03:39:54 10° NE daylight
04 Jun - 05:12:42 10° WSW 05:18:09 45° NW 05:23:06 10° NNE daylight
04 Jun - 06:59:18 10° WNW 07:02:32 16° NNW 07:05:37 10° NNE daylight
04 Jun - 08:46:24 10° NNW 08:47:52 11° N 08:49:18 10° NNE daylight
04 Jun - 10:29:23 10° NNW 10:32:59 21° NNE 10:36:23 10° E daylight
04 Jun - 12:12:11 10° NW 12:16:52 87° ENE 12:21:14 10° SE daylight
04 Jun - 13:57:08 10° WNW 13:59:10 13° WSW 14:01:11 10° SW daylight
